Location: Unspecified
(0.0000°N, 0.0000°E)
Time: 15:20:04
(UTC+00:00)

ISS - Pass Details

Date: 14 May 2022
Orbit: 414 x 421 km, 51.6° (Epoch: 20 May)

Event Time Altitude Azimuth Distance (km) Brightness Sun altitude
Rises 05:28:25 0° 345° (NNW) 2,333 0.1 -6.6°
Reaches altitude 10° 05:30:47 10° 1° (N) 1,476 -0.7 -6.1°
Maximum altitude 05:33:27 22° 54° (NE) 945 -0.8 -5.4°
Drops below altitude 10° 05:36:09 10° 108° (ESE) 1,485 -0.1 -4.8°
Sets 05:38:32 0° 124° (ESE) 2,352 0.6 -4.2°
